• In Moldova, Republic
  • List of Countries
  • For 7 days
  • Water Temperature
  • Satellite Maps
  • Weather Map
  • Weather Widgets
  • user-avatar
    Login

    Hourly Weather Shaki

    Today, 21 July, Friday

    Time Temperature Precipitation Wind Pressure Humidity
    00:00 +28°C° 0 mm 2 mps 732 mmHg 25%
    01:00 +28°C° 0 mm 2 mps 732 mmHg 25%
    02:00 +27°C° 0 mm 2 mps 732 mmHg 26%
    03:00 +27°C° 0 mm 1 mps 731 mmHg 28%
    04:00 +28°C° 0 mm 1 mps 731 mmHg 29%
    05:00 +28°C° 0 mm 1 mps 731 mmHg 30%
    06:00 +29°C° 0 mm 1 mps 732 mmHg 31%
    07:00 +31°C° 0 mm 1 mps 732 mmHg 28%
    08:00 +34°C° 0 mm 2 mps 732 mmHg 25%
    09:00 +36°C° 0 mm 2 mps 732 mmHg 22%
    10:00 +37°C° 0 mm 2 mps 732 mmHg 21%
    11:00 +38°C° 0 mm 2 mps 732 mmHg 20%
    12:00 +39°C° 0 mm 2 mps 732 mmHg 18%
    13:00 +39°C° 0 mm 3 mps 732 mmHg 18%
    14:00 +40°C° 0 mm 3 mps 732 mmHg 17%
    15:00 +41°C° 0 mm 4 mps 732 mmHg 16%
    16:00 +40°C° 0 mm 4 mps 732 mmHg 17%
    17:00 +40°C° 0 mm 4 mps 732 mmHg 18%
    18:00 +38°C° 0 mm 4 mps 732 mmHg 19%
    19:00 +36°C° 0 mm 4 mps 733 mmHg 21%
    20:00 +33°C° 0 mm 4 mps 733 mmHg 22%
    21:00 +30°C° 0 mm 3 mps 733 mmHg 24%
    22:00 +30°C° 0 mm 3 mps 733 mmHg 26%
    23:00 +29°C° 0 mm 3 mps 733 mmHg 28%

    Tomorrow, 22 July, Saturday

    Time Temperature Precipitation Wind Pressure Humidity
    00:00 +28°C° 0 mm 2 mps 733 mmHg 31%
    01:00 +28°C° 0 mm 2 mps 733 mmHg 32%
    02:00 +27°C° 0 mm 2 mps 733 mmHg 33%
    03:00 +27°C° 0 mm 2 mps 733 mmHg 34%
    04:00 +28°C° 0 mm 2 mps 734 mmHg 33%
    05:00 +28°C° 0 mm 1 mps 734 mmHg 33%
    06:00 +29°C° 0 mm 1 mps 734 mmHg 33%
    07:00 +31°C° 0 mm 1 mps 734 mmHg 28%
    08:00 +32°C° 0 mm 1 mps 734 mmHg 24%
    09:00 +35°C° 0 mm 2 mps 734 mmHg 20%
    10:00 +36°C° 0 mm 2 mps 734 mmHg 19%
    11:00 +37°C° 0 mm 3 mps 734 mmHg 17%
    12:00 +39°C° 0 mm 3 mps 733 mmHg 16%
    13:00 +39°C° 0 mm 3 mps 733 mmHg 15%
    14:00 +41°C° 0 mm 4 mps 733 mmHg 15%
    15:00 +41°C° 0 mm 4 mps 732 mmHg 14%
    16:00 +40°C° 0 mm 4 mps 732 mmHg 15%
    17:00 +40°C° 0 mm 4 mps 732 mmHg 16%
    18:00 +38°C° 0 mm 4 mps 732 mmHg 17%
    19:00 +36°C° 0 mm 4 mps 732 mmHg 16%
    20:00 +33°C° 0 mm 3 mps 732 mmHg 15%
    21:00 +30°C° 0 mm 3 mps 732 mmHg 14%
    22:00 +30°C° 0 mm 3 mps 732 mmHg 15%
    23:00 +29°C° 0 mm 3 mps 732 mmHg 16%

    Day after tomorrow, 23 July, Sunday

    Time Temperature Precipitation Wind Pressure Humidity
    00:00 +29°C° 0 mm 2 mps 732 mmHg 17%
    01:00 +28°C° 0 mm 2 mps 732 mmHg 19%
    02:00 +28°C° 0 mm 2 mps 732 mmHg 20%
    03:00 +27°C° 0 mm 2 mps 732 mmHg 22%
    04:00 +28°C° 0 mm 2 mps 731 mmHg 23%
    05:00 +28°C° 0 mm 2 mps 731 mmHg 25%
    06:00 +29°C° 0 mm 2 mps 731 mmHg 27%
    07:00 +31°C° 0 mm 2 mps 731 mmHg 24%
    08:00 +34°C° 0 mm 2 mps 731 mmHg 21%
    09:00 +36°C° 0 mm 2 mps 731 mmHg 18%
    10:00 +37°C° 0 mm 2 mps 731 mmHg 17%
    11:00 +38°C° 0 mm 2 mps 731 mmHg 16%
    12:00 +39°C° 0 mm 2 mps 730 mmHg 15%
    13:00 +39°C° 0 mm 2 mps 730 mmHg 15%
    14:00 +40°C° 0 mm 2 mps 730 mmHg 15%
    15:00 +40°C° 0 mm 2 mps 729 mmHg 14%
    16:00 +39°C° 0 mm 2 mps 729 mmHg 16%
    17:00 +39°C° 0 mm 2 mps 729 mmHg 17%
    18:00 +38°C° 0 mm 2 mps 729 mmHg 18%
    19:00 +36°C° 0 mm 2 mps 730 mmHg 19%
    20:00 +34°C° 0 mm 3 mps 730 mmHg 20%
    21:00 +31°C° 0 mm 3 mps 731 mmHg 21%
    22:00 +30°C° 0 mm 3 mps 731 mmHg 23%
    23:00 +30°C° 0 mm 2 mps 731 mmHg 26%

    24 July, Monday

    Time Temperature Precipitation Wind Pressure Humidity
    00:00 +29°C° 0 mm 2 mps 731 mmHg 28%
    01:00 +29°C° 0 mm 2 mps 731 mmHg 29%
    02:00 +28°C° 0 mm 2 mps 731 mmHg 30%
    03:00 +28°C° 0 mm 2 mps 731 mmHg 31%
    04:00 +28°C° 0 mm 1 mps 732 mmHg 32%
    05:00 +28°C° 0 mm 1 mps 732 mmHg 33%
    06:00 +29°C° 0 mm 1 mps 732 mmHg 33%
    07:00 +31°C° 0 mm 1 mps 732 mmHg 29%
    08:00 +32°C° 0 mm 1 mps 732 mmHg 24%
    09:00 +35°C° 0 mm 2 mps 732 mmHg 20%
    10:00 +36°C° 0 mm 2 mps 732 mmHg 19%
    11:00 +37°C° 0 mm 2 mps 731 mmHg 18%
    12:00 +38°C° 0 mm 3 mps 731 mmHg 17%
    13:00 +39°C° 0 mm 3 mps 731 mmHg 16%
    14:00 +39°C° 0 mm 3 mps 731 mmHg 16%
    15:00 +41°C° 0 mm 4 mps 731 mmHg 15%
    16:00 +40°C° 0 mm 4 mps 731 mmHg 17%
    17:00 +38°C° 0 mm 4 mps 731 mmHg 19%
    18:00 +38°C° 0 mm 3 mps 731 mmHg 20%
    19:00 +35°C° 0 mm 3 mps 731 mmHg 23%
    20:00 +33°C° 0 mm 3 mps 731 mmHg 25%
    21:00 +30°C° 0 mm 3 mps 732 mmHg 28%
    22:00 +30°C° 0 mm 3 mps 731 mmHg 29%
    23:00 +29°C° 0 mm 3 mps 731 mmHg 31%

    25 July, Tuesday

    Time Temperature Precipitation Wind Pressure Humidity
    00:00 +28°C° 0 mm 3 mps 731 mmHg 32%
    01:00 +28°C° 0 mm 2 mps 731 mmHg 33%
    02:00 +27°C° 0 mm 2 mps 731 mmHg 34%
    03:00 +27°C° 0 mm 2 mps 731 mmHg 35%
    04:00 +28°C° 0 mm 2 mps 731 mmHg 35%
    05:00 +28°C° 0 mm 1 mps 731 mmHg 35%
    06:00 +29°C° 0 mm 1 mps 731 mmHg 36%
    07:00 +30°C° 0 mm 1 mps 731 mmHg 33%
    08:00 +32°C° 0 mm 1 mps 731 mmHg 31%
    09:00 +34°C° 0 mm 1 mps 731 mmHg 28%
    10:00 +36°C° 0 mm 2 mps 730 mmHg 26%
    11:00 +37°C° 0 mm 2 mps 730 mmHg 24%
    12:00 +38°C° 0 mm 2 mps 729 mmHg 22%
    13:00 +38°C° 0 mm 2 mps 729 mmHg 21%
    14:00 +39°C° 0 mm 2 mps 729 mmHg 20%
    15:00 +39°C° 0 mm 2 mps 728 mmHg 19%
    16:00 +39°C° 0 mm 2 mps 728 mmHg 20%
    17:00 +38°C° 0 mm 2 mps 728 mmHg 21%
    18:00 +38°C° 0 mm 2 mps 728 mmHg 22%
    19:00 +36°C° 0 mm 2 mps 729 mmHg 22%
    20:00 +34°C° 0 mm 3 mps 729 mmHg 23%
    21:00 +31°C° 0 mm 3 mps 729 mmHg 23%
    22:00 +30°C° 0 mm 3 mps 729 mmHg 24%
    23:00 +29°C° 0 mm 2 mps 729 mmHg 25%

    26 July, Wednesday

    Time Temperature Precipitation Wind Pressure Humidity
    00:00 +29°C° 0 mm 2 mps 730 mmHg 25%
    01:00 +28°C° 0 mm 2 mps 730 mmHg 26%
    02:00 +28°C° 0 mm 2 mps 730 mmHg 27%
    03:00 +28°C° 0 mm 2 mps 730 mmHg 28%
    04:00 +28°C° 0 mm 2 mps 730 mmHg 29%
    05:00 +29°C° 0 mm 2 mps 730 mmHg 29%
    06:00 +29°C° 0 mm 2 mps 730 mmHg 30%
    07:00 +31°C° 0 mm 2 mps 730 mmHg 27%
    08:00 +34°C° 0 mm 2 mps 730 mmHg 24%
    09:00 +36°C° 0 mm 3 mps 730 mmHg 21%
    10:00 +37°C° 0 mm 3 mps 730 mmHg 20%
    11:00 +38°C° 0 mm 2 mps 730 mmHg 20%
    12:00 +39°C° 0 mm 2 mps 729 mmHg 19%
    13:00 +40°C° 0 mm 2 mps 729 mmHg 19%
    14:00 +40°C° 0 mm 2 mps 729 mmHg 18%
    15:00 +40°C° 0 mm 1 mps 729 mmHg 18%
    16:00 +40°C° 0 mm 2 mps 729 mmHg 19%
    17:00 +39°C° 0 mm 2 mps 729 mmHg 21%
    18:00 +38°C° 0 mm 2 mps 729 mmHg 22%
    19:00 +36°C° 0 mm 2 mps 730 mmHg 25%
    20:00 +34°C° 0 mm 3 mps 730 mmHg 27%
    21:00 +31°C° 0 mm 3 mps 731 mmHg 30%
    22:00 +30°C° 0 mm 3 mps 731 mmHg 32%
    23:00 +29°C° 0 mm 3 mps 731 mmHg 35%
    Show more